Regional Weather Roundup
Issued by NWS Sioux Falls, SD

Home | Current Version | Previous Version | Graphics & Text | Print | Product List | Glossary Off
Versions: 1 2 3 4 5 6 7 8 9 10 11 12 13 14 15 16 17 18 19 20 21 22 23 24 25 26 27 28 29 30 31 32 33 34 35 36 37 38 39 40 41 42 43 44 45 46 47 48 49 50

000
ASUS43 KFSD 281010
RWRFSD

WEATHER ROUNDUP FOR SE SOUTH DAKOTA/SW MINNESOTA/NW IOWA
NATIONAL WEATHER SERVICE SIOUX FALLS SD
500 AM CDT TUE JUL 28 2015

NOTE: "FAIR" INDICATES FEW OR NO CLOUDS BELOW 12,000 FEET WITH NO
SIGNIFICANT WEATHER AND OR OBSTRUCTIONS TO VISIBILITY.


SDZ038>040-050-052>070-281100-
SOUTHEAST SOUTH DAKOTA

CITY           SKY/WX    TMP DP  RH WIND       PRES   REMARKS
BROOKINGS      CLOUDY    70  64  83 SE10      29.77F
CHAMBERLAIN    CLOUDY    67  67  98 W7        29.73S
HURON          CLOUDY    68  67  96 SE6       29.68S
MADISON        LGT RAIN  66  66 100 E14       29.72F
MITCHELL       CLOUDY    70  68  93 CALM      29.72R
SIOUX FALLS    TSTM      72  69  90 E14       29.76F
WINNER         FAIR      64  59  83 W22G30    29.78R
YANKTON        CLOUDY    86  66  51 MISG      29.70F
$$

MNZ071-072-080-081-089-090-097-098-281100-
SOUTHWEST MINNESOTA

CITY           SKY/WX    TMP DP  RH WIND       PRES   REMARKS
FAIRMONT       CLOUDY    72  64  78 SE18G24   29.79F
JACKSON        CLOUDY    72  70  94 S12G17    29.80R
LUVERNE        RAIN      72  68  88 NE10      29.81S
MARSHALL       CLOUDY    70  64  83 SW7       29.82F
MONTEVIDEO     TSTM      70  68  94 SW5       29.77R
PIPESTONE      RAIN      66  64  94 SE3       29.84F
REDWOOD FALLS  TSTM      72  68  87 W16G30    29.78R
TRACY          CLOUDY    70  68  94 SW12      29.84R
WINDOM         CLOUDY    73  68  83 SW12      29.85R
WORTHINGTON    CLOUDY    72  66  83 NW7       29.86R THUNDER
$$

IAZ001>003-012>014-020>022-031-032-NEZ013-014-SDZ071-281100-
NORTHWEST IOWA

CITY           SKY/WX    TMP DP  RH WIND       PRES   REMARKS
CHEROKEE       TSTM      73  72  98 S13       29.74F
DENISON        MOCLDY    73  70  88 S17G25    29.78F
ESTHERVILLE    CLOUDY    70  68  93 SE16G24   29.79F
LE MARS        HVY RAIN  68  68 100 NW16G32   29.84R VSB 3/4
ORANGE CITY    RAIN      66  66 100 NW12      29.86R
SHELDON        HVY RAIN  68  68 100 NW14G32   29.86R VSB 1
SIOUX CITY     CLOUDY    76  68  76 N30G40    29.80R SQUALL
SPENCER        LGT RAIN  72  68  87 SE17G24   29.74F
STORM LAKE     MOCLDY    72  70  94 SE12G18   29.78F
$$

ABBREVIATIONS USED IN REMARKS
   TC - TEMPERATURE IN CELSIUS
  WCI - WIND CHILL INDEX
   HX - HEAT INDEX
  VSB - VISIBILITY



USA.gov is the U.S. government's official web portal to all federal, state and local government web resources and services.